CZ-6A DEB, 56594

Orbit data source: Space-Track

CZ-6A DEB, 56594 is space debris in SSO originally from a launch on Fri, 11 Nov 2022 UTC launched from the Taiyaun Space Center, China (TSC). Debris objects in space refer to the collection of defunct objects orbiting the Earth. Examples of debris include non-operational satellites, rocket bodies, and fragments generated from explosions, collisions, or faulty payload assembly.

Loading next visibility...
Identifier
56594, 2022-151ADS
Orbit
SSO
Country
Flag of CNCN / PRC
Related business
Manufacturer
SAST
Mission
Spacecraft
Bus & Motor
Unknown
Mass
Unknown
Launch date (UTC)
2022-11-11 (3 years ago)
Launch vehicle
Unknown
Launch site
Taiyaun Space Center, China (TSC)
Object type
Payload
Rocket body
Debris
Shape & HBR
Unknown shape, 0.1 m
Radar Cross Section
Small (<0.1 m²)

Expand to show TLE details & history
Last TLE update: 1 day ago

TLE from 1 day ago
0 CZ-6A DEB
1 56594U 22151ADS 25349.73559248  .00000270  00000-0  16245-3 0  9996
2 56594  98.8003 353.1267 0028873  67.3285 293.0937 14.14683260141559
Epoch: 2025-12-15T17:39Z
TLE epoch observation values (Epoch: 2025-12-15T17:39:15.190Z)
Latitude
0.00001°
Longitude
3.68352°
Altitude
838.165 km
Speed
7.438 km/s
True Right ascension
23h 32m 30s
True Declination
0° 00' 00"
Sunlit
Object was in daylight at epoch
Visualization orbit readout
Latitude
Unknown
Longitude
Unknown
Altitude
Unknown
Speed
Unknown
Apparent Right ascension
Unknown
Apparent Declination
Unknown
Sunlit
N/A
Visualization observer readout
Local Sidereal Time
23:46:51
Azimuth
Unknown
Elevation
Unknown
Doppler factor
Unknown
Orbital elements
Apogee altitude
861.402 km
Perigee altitude
819.717 km
Semi-major axis
7,218.697 km
Eccentricity
0.00289
Inclination
98.8003°
RAAN
353.1267°
Arg. of periapsis
67.3285°
True anomaly
292.78892°
Mean anomaly
293.0937°
Eccentric anomaly
292.94135°
Mean motion
3.53879 °/min
Orbital period
101.73 mins
BSTAR
0.00016245
Loading maneuver chart data...
Computing Atmospheric mass density...
Loading historical data...
Loading historical data...
Loading historical data...
Loading historical data...
Loading historical data...
Loading historical data...
Loading historical data...

Documentation

Showing up to 5 results
|